This is the latest recevied weather packets stored in our database for station/object W1HVD. If no packets are shown the sender has not sent any weather packets the latest 10 day(s).
| Time | Temp. | Humidity | Pressure | Rain* | Wind** | Luminosity | Snow |
|---|---|---|---|---|---|---|---|
| 1778221254 | 7.78° C | 58% | 1007.5 hPa | 0 mm | - | 0 W/m² | - |
| 1778220952 | 7.78° C | 56% | 1007.9 hPa | 0 mm | - | 0 W/m² | - |
| 1778220649 | 8.33° C | 55% | 1007.6 hPa | 0 mm | - | 0 W/m² | - |
| 1778220345 | 8.33° C | 55% | 1007.6 hPa | 0 mm | - | 0 W/m² | - |
| 1778220043 | 8.33° C | 53% | 1007.8 hPa | 0 mm | - | 0 W/m² | - |
| 1778219738 | 8.33° C | 54% | 1007.8 hPa | 0 mm | - | 0 W/m² | - |
| 1778219436 | 8.89° C | 58% | 1007.5 hPa | 0 mm | - | 0 W/m² | - |
| 1778219132 | 8.89° C | 58% | 1007.6 hPa | 0 mm | - | 0 W/m² | - |
| 1778218829 | 8.89° C | 55% | 1007.6 hPa | 0 mm | - | 0 W/m² | - |
| 1778218526 | 9.44° C | 55% | 1007.6 hPa | 0 mm | - | 0 W/m² | - |
| 1778218225 | 9.44° C | 51% | 1007.4 hPa | 0 mm | - | 0 W/m² | - |
| 1778217921 | 10° C | 51% | 1007.5 hPa | 0 mm | - | 0 W/m² | - |
| 1778217618 | 10° C | 55% | 1007.6 hPa | 0 mm | - | 0 W/m² | - |
| 1778217314 | 10° C | 50% | 1007.7 hPa | 0 mm | - | 0 W/m² | - |
| 1778217009 | 10° C | 49% | 1007.6 hPa | 0 mm | - | 0 W/m² | - |
| 1778216706 | 10° C | 53% | 1007.6 hPa | 0 mm | - | 0 W/m² | - |
| 1778216403 | 10° C | 51% | 1007.4 hPa | 0 mm | - | 0 W/m² | - |
| 1778216100 | 10° C | 52% | 1007.6 hPa | 0 mm | - | 0 W/m² | - |
| 1778215797 | 10° C | 53% | 1007.6 hPa | 0 mm | - | 0 W/m² | - |
| 1778215494 | 10° C | 54% | 1007.8 hPa | 0 mm | - | 0 W/m² | - |
| 1778215190 | 10° C | 58% | 1007.4 hPa | 0 mm | - | 0 W/m² | - |
| 1778214887 | 10° C | 53% | 1007.7 hPa | 0 mm | - | 0 W/m² | - |
| 1778214583 | 10° C | 52% | 1007.8 hPa | 0 mm | - | 0 W/m² | - |
| 1778214282 | 10° C | 53% | 1007.6 hPa | 0 mm | - | 0 W/m² | - |
| 1778213978 | 10° C | 53% | 1007.7 hPa | 0 mm | - | 0 W/m² | - |
* Rain latest hour (hover to see other rain measurements)
** Current wind speed in m/s (hover to see current wind gust speed)